Newcastle, WY

6:38 AM MDT on September 26, 2016 (GMT -0600)
Mondell

Weather History for KECS - January, 2014

Change the Weather History Date:

Tuesday, January 21, 2014

  Actual Average (KCUT) Record (KCUT)
Temperature  
Mean Temperature 26 °F 24 °F  
Max Temperature 39 °F 35 °F 55 °F (2009)
Min Temperature 14 °F 14 °F -27 °F (1966)
Degree Days  
Heating Degree Days 38 41  
Month to date heating degree days 861  
Since 1 July heating degree days 4331  
Cooling Degree Days 0 0  
Month to date cooling degree days 0  
Year to date cooling degree days 0  
Moisture  
Dew Point 18 °F    
Average Humidity 65    
Maximum Humidity 86    
Minimum Humidity 38    
Precipitation  
Precipitation 0.00 in 0.01 in 0.22 in (1974)
Month to date precipitation 0.20  
Year to date precipitation 0.20  
Sea Level Pressure  
Sea Level Pressure 30.13 in    
Wind  
Wind Speed 10 mph (NNW)    
Max Wind Speed 22 mph    
Max Gust Speed 31 mph    
Visibility 10 miles    
Events      
T = Trace of Precipitation, MM = Missing Value Source: NWS Daily Summary

Daily Weather History Graph

Daily Weather History Graph

Search for Another Location

Airport or City:

Trip Planner

Search our weather history database for the weather conditions in past years. The results will help you decide how hot, cold, wet, or windy it might be!

Date:

Astronomy

Jan. 21, 2014 Rise Set
Actual Time 7:24 AM MST 4:53 PM MST
Civil Twilight 6:53 AM MST 5:24 PM MST
Nautical Twilight 6:17 AM MST 5:59 PM MST
Astronomical Twilight 5:43 AM MST 6:34 PM MST
Moon 10:41 PM MST (1/21) 9:43 AM MST (1/21)
Length of Visible Light 10h 31m
Length of Day
9h 28m
Waning Gibbous, 74% of the Moon is Illuminated
Jan 21
Waning Gibbous
Jan 23
Last Quarter
Jan 30
New
Feb 6
First Quarter
Feb 14
Full

Hourly Weather History & Observations

Time (MST) Temp. Windchill Dew Point Humidity Pressure Visibility Wind Dir Wind Speed Gust Speed Precip Events Conditions
12:15 AM 17.6 °F 10.7 °F 14.0 °F 86% 30.23 in 10.0 mi North 4.6 mph - N/A   Clear
12:35 AM 17.6 °F - 14.0 °F 86% 30.22 in 10.0 mi Calm Calm - N/A   Clear
12:55 AM 17.6 °F 10.7 °F 12.2 °F 79% 30.23 in 10.0 mi SSW 4.6 mph - N/A   Clear
1:15 AM 15.8 °F - 12.2 °F 86% 30.21 in 10.0 mi Calm Calm - N/A   Clear
1:35 AM 17.6 °F - 14.0 °F 86% 30.21 in 10.0 mi Calm Calm - N/A   Clear
1:55 AM 15.8 °F 10.2 °F 12.2 °F 86% 30.19 in 10.0 mi NNE 3.5 mph - N/A   Clear
2:15 AM 14.0 °F - 10.4 °F 86% 30.18 in 10.0 mi Calm Calm - N/A   Clear
2:35 AM 15.8 °F 7.2 °F 12.2 °F 86% 30.18 in 10.0 mi North 5.8 mph - N/A   Clear
2:55 AM 17.6 °F - 12.2 °F 79% 30.17 in 10.0 mi Calm Calm - N/A   Clear
3:15 AM 15.8 °F 6.1 °F 10.4 °F 79% 30.17 in 10.0 mi North 6.9 mph - N/A   Clear
3:35 AM 17.6 °F 8.2 °F 12.2 °F 79% 30.15 in 10.0 mi North 6.9 mph - N/A   Clear
3:55 AM 17.6 °F 6.4 °F 12.2 °F 79% 30.15 in 10.0 mi North 9.2 mph - N/A   Clear
4:15 AM 17.6 °F 12.3 °F 12.2 °F 79% 30.14 in 10.0 mi NNW 3.5 mph - N/A   Clear
4:35 AM 17.6 °F 6.4 °F 12.2 °F 79% 30.13 in 10.0 mi North 9.2 mph - N/A   Clear
4:55 AM 17.6 °F 7.3 °F 12.2 °F 79% 30.12 in 10.0 mi North 8.1 mph - N/A   Clear
5:15 AM 17.6 °F 5.0 °F 12.2 °F 79% 30.11 in 10.0 mi North 11.5 mph - N/A   Clear
5:35 AM 19.4 °F 6.6 °F 12.2 °F 74% 30.10 in 10.0 mi North 12.7 mph - N/A   Clear
5:55 AM 21.2 °F 9.5 °F 12.2 °F 68% 30.10 in 10.0 mi North 11.5 mph - N/A   Clear
6:15 AM 19.4 °F 7.2 °F 12.2 °F 74% 30.09 in 10.0 mi North 11.5 mph - N/A   Clear
6:35 AM 21.2 °F 8.3 °F 12.2 °F 68% 30.09 in 10.0 mi North 13.8 mph - N/A   Clear
6:55 AM 21.2 °F 8.9 °F 12.2 °F 68% 30.09 in 10.0 mi North 12.7 mph - N/A   Clear
7:15 AM 21.2 °F 8.3 °F 12.2 °F 68% 30.09 in 10.0 mi North 13.8 mph - N/A   Clear
7:35 AM 21.2 °F 8.3 °F 12.2 °F 68% 30.09 in 10.0 mi North 13.8 mph - N/A   Clear
7:55 AM 23.0 °F 10.6 °F 12.2 °F 63% 30.09 in 10.0 mi North 13.8 mph - N/A   Clear
8:15 AM 24.8 °F 12.9 °F 12.2 °F 59% 30.09 in 10.0 mi North 13.8 mph - N/A   Clear
8:35 AM 26.6 °F 14.3 °F 12.2 °F 55% 30.09 in 10.0 mi North 16.1 mph - N/A   Clear
8:56 AM 28.4 °F 18.0 °F 12.2 °F 51% 30.09 in 10.0 mi North 12.7 mph - N/A   Clear
9:15 AM 32.0 °F 25.6 °F 14.0 °F 48% 30.10 in 10.0 mi NNW 6.9 mph - N/A   Clear
9:35 AM 35.6 °F 27.1 °F 14.0 °F 41% 30.10 in 10.0 mi NW 12.7 mph - N/A   Clear
9:55 AM 35.6 °F 26.6 °F 14.0 °F 41% 30.11 in 10.0 mi NW 13.8 mph - N/A   Clear
10:15 AM 37.4 °F 27.8 °F 14.0 °F 38% 30.11 in 10.0 mi NW 17.3 mph - N/A   Clear
10:35 AM 37.4 °F 28.5 °F 14.0 °F 38% 30.12 in 10.0 mi NW 15.0 mph - N/A   Clear
10:55 AM 37.4 °F 28.5 °F 15.8 °F 41% 30.12 in 10.0 mi NW 15.0 mph 20.7 mph N/A   Clear
11:15 AM 37.4 °F 28.2 °F 15.8 °F 41% 30.12 in 10.0 mi NW 16.1 mph 21.9 mph N/A   Clear
11:35 AM 37.4 °F 26.6 °F 15.8 °F 41% 30.12 in 10.0 mi NW 21.9 mph 27.6 mph N/A   Clear
11:55 AM 37.4 °F 26.9 °F 15.8 °F 41% 30.11 in 10.0 mi NW 20.7 mph 26.5 mph N/A   Clear
12:15 PM 37.4 °F 27.2 °F 17.6 °F 45% 30.11 in 10.0 mi NW 19.6 mph 26.5 mph N/A   Clear
12:35 PM 37.4 °F 28.2 °F 17.6 °F 45% 30.11 in 10.0 mi NW 16.1 mph - N/A   Scattered Clouds
12:55 PM 37.4 °F 27.5 °F 19.4 °F 48% 30.10 in 10.0 mi NW 18.4 mph 21.9 mph N/A   Scattered Clouds
1:15 PM 39.2 °F 29.8 °F 17.6 °F 42% 30.10 in 10.0 mi NW 18.4 mph 26.5 mph N/A   Clear
1:35 PM 39.2 °F 29.0 °F 19.4 °F 45% 30.10 in 10.0 mi NW 21.9 mph 29.9 mph N/A   Clear
1:55 PM 37.4 °F 26.6 °F 21.2 °F 52% 30.10 in 10.0 mi NW 21.9 mph 28.8 mph N/A   Clear
2:15 PM 37.4 °F 27.5 °F 21.2 °F 52% 30.10 in 10.0 mi NW 18.4 mph 31.1 mph N/A   Clear
2:35 PM 37.4 °F 27.5 °F 21.2 °F 52% 30.10 in 10.0 mi NW 18.4 mph 25.3 mph N/A   Clear
2:55 PM 37.4 °F 27.8 °F 21.2 °F 52% 30.10 in 10.0 mi NW 17.3 mph 24.2 mph N/A   Scattered Clouds
3:15 PM 39.2 °F 29.8 °F 21.2 °F 49% 30.10 in 10.0 mi NW 18.4 mph - N/A   Clear
3:35 PM 37.4 °F 27.5 °F 21.2 °F 52% 30.11 in 10.0 mi NW 18.4 mph 25.3 mph N/A   Clear
3:55 PM 37.4 °F 28.5 °F 23.0 °F 56% 30.10 in 10.0 mi NW 15.0 mph - N/A   Clear
4:15 PM 35.6 °F 26.2 °F 23.0 °F 60% 30.11 in 10.0 mi NNW 15.0 mph 23.0 mph N/A   Clear
4:35 PM 35.6 °F 26.2 °F 24.8 °F 65% 30.12 in 10.0 mi NNW 15.0 mph 19.6 mph N/A   Scattered Clouds
4:55 PM 35.6 °F 27.1 °F 24.8 °F 65% 30.12 in 10.0 mi NNW 12.7 mph - N/A   Scattered Clouds
5:15 PM 35.6 °F 26.2 °F 24.8 °F 65% 30.13 in 10.0 mi NW 15.0 mph 20.7 mph N/A   Scattered Clouds
5:35 PM 35.6 °F 26.2 °F 24.8 °F 65% 30.12 in 10.0 mi NNW 15.0 mph 19.6 mph N/A   Scattered Clouds
5:55 PM 33.8 °F 22.5 °F 24.8 °F 70% 30.13 in 10.0 mi NW 19.6 mph 24.2 mph N/A   Scattered Clouds
6:15 PM 33.8 °F 23.5 °F 24.8 °F 70% 30.13 in 10.0 mi NNW 16.1 mph 21.9 mph N/A   Scattered Clouds
6:35 PM 33.8 °F 23.2 °F 24.8 °F 70% 30.12 in 10.0 mi NNW 17.3 mph 21.9 mph N/A   Scattered Clouds
6:55 PM 33.8 °F 23.2 °F 24.8 °F 70% 30.12 in 10.0 mi NNW 17.3 mph 23.0 mph N/A   Clear
7:15 PM 33.8 °F 23.5 °F 24.8 °F 70% 30.12 in 10.0 mi NW 16.1 mph 23.0 mph N/A   Scattered Clouds
7:35 PM 32.0 °F 21.2 °F 24.8 °F 75% 30.13 in 10.0 mi NW 16.1 mph - N/A   Scattered Clouds
7:55 PM 32.0 °F 21.2 °F 23.0 °F 69% 30.13 in 10.0 mi NW 16.1 mph 21.9 mph N/A   Scattered Clouds
8:15 PM 32.0 °F 21.2 °F 23.0 °F 69% 30.13 in 10.0 mi NW 16.1 mph - N/A   Scattered Clouds
8:35 PM 32.0 °F 20.8 °F 23.0 °F 69% 30.12 in 10.0 mi NNW 17.3 mph 24.2 mph N/A   Scattered Clouds
8:55 PM 32.0 °F 19.5 °F 23.0 °F 69% 30.13 in 10.0 mi NNW 21.9 mph 26.5 mph N/A   Mostly Cloudy
9:15 PM 32.0 °F 19.5 °F 23.0 °F 69% 30.14 in 10.0 mi NNW 21.9 mph 28.8 mph N/A   Mostly Cloudy
9:35 PM 32.0 °F 20.5 °F 23.0 °F 69% 30.13 in 10.0 mi NNW 18.4 mph 25.3 mph N/A   Scattered Clouds
9:55 PM 30.2 °F 19.3 °F 23.0 °F 75% 30.13 in 10.0 mi NW 15.0 mph - N/A   Clear
10:15 PM 30.2 °F 19.8 °F 23.0 °F 75% 30.13 in 10.0 mi NNW 13.8 mph - N/A   Scattered Clouds
10:35 PM 30.2 °F 20.2 °F 23.0 °F 75% 30.13 in 10.0 mi NW 12.7 mph 18.4 mph N/A   Scattered Clouds
10:55 PM 30.2 °F 20.2 °F 23.0 °F 75% 30.13 in 10.0 mi NW 12.7 mph - N/A   Scattered Clouds
11:15 PM 30.2 °F 19.3 °F 23.0 °F 75% 30.14 in 10.0 mi NNW 15.0 mph 20.7 mph N/A   Mostly Cloudy
11:35 PM 30.2 °F 20.2 °F 23.0 °F 75% 30.14 in 10.0 mi NW 12.7 mph - N/A   Mostly Cloudy
11:55 PM 30.2 °F 19.3 °F 23.0 °F 75% 30.14 in 10.0 mi NW 15.0 mph - N/A   Overcast